Location: Ajisawe
(8.4333°N, 4.3833°E)
Time: 00:38:03
(UTC+00:00)

Courier 1B Rocket - Pass Details

Date: 02 May 2021
Orbit: 920 x 1202 km, 28.3° (Epoch: 13 May)

Event Time Altitude Azimuth Distance (km) Brightness Sun altitude
Rises 12:16:01 0° 256° (WSW) 3,792 8.2 78.6°
Reaches altitude 10° 12:18:55 10° 262° (W) 2,794 7.7 78.0°
Maximum altitude 12:25:20 46° 334° (NNW) 1,275 6.8 76.7°
Drops below altitude 10° 12:31:24 10° 46° (NE) 2,637 7.4 75.5°
Sets 12:34:05 0° 53° (NE) 3,561 7.9 74.9°
